Regional Weather Roundup
Issued by NWS

Home | Current Version | Previous Version | Text Only | Print | Product List | Glossary Off
Versions: 1 2 3 4 5 6 7 8 9 10 11 12 13 14 15 16 17 18 19 20 21 22 23 24 25 26 27 28 29 30 31 32 33 34 35 36 37 38 39 40 41 42 43 44 45 46 47 48 49 50

000
ASUS43 KLMK 192202
RWRKY
KENTUCKY REGIONAL WEATHER ROUNDUP
NATIONAL WEATHER SERVICE LOUISVILLE KY
600 PM EDT TUE SEP 19 2017

NOTE "FAIR" INDICATES FEW OR NO CLOUDS BELOW 12,000 FEET
WITH NO SIGNIFICANT WEATHER AND/OR OBSTRUCTIONS TO VISIBILITY.

KYZ001>023-026-027-061>063-070>075-192300-
WESTERN AND SOUTH CENTRAL KENTUCKY

CITY           SKY/WX    TMP DP  RH WIND       PRES   REMARKS
PADUCAH        MOSUNNY   88  67  49 S3        29.88S HX  91
HENDERSON      NOT AVBL
OWENSBORO      PTSUNNY   84  69  60 SW6       29.91R
HOPKINSVILLE   MOSUNNY   86  68  54 SW8       29.90S HX  90
BOWLING GREEN  PTSUNNY   83  73  72 VRB3      29.92R
GLASGOW        CLOUDY    81  67  63 S5        29.94R
$$

KYZ024-025-028>034-038-045-046-053-192300-
NORTH CENTRAL KENTUCKY

CITY           SKY/WX    TMP DP  RH WIND       PRES   REMARKS
LOUISVILLE/SDF CLOUDY    76  68  76 SE8       29.93S
LOUISVILLE/LOU CLOUDY    75  70  84 S7        29.94S
FORT KNOX      CLOUDY    76  71  82 NE6       29.92S
$$

KYZ035>037-039>044-047>052-055>060-089>105-192300-
NORTHEAST KENTUCKY

CITY           SKY/WX    TMP DP  RH WIND       PRES   REMARKS
LEXINGTON      CLOUDY    79  69  71 VRB3      29.95S
COVINGTON      PTSUNNY   76  67  73 SW8       29.94S
FRANKFORT      CLOUDY    75  67  76 NW5       29.94S
$$

KYZ054-064>069-076>088-106>120-192300-
SOUTHEAST KENTUCKY

CITY           SKY/WX    TMP DP  RH WIND       PRES   REMARKS
JACKSON        SUNNY     73  69  87 CALM      29.98S
LONDON         CLOUDY    76  69  79 S5        29.97S
SOMERSET       NOT AVBL
MIDDLESBORO    CLOUDY    77  68  74 W5        29.99R
MONTICELLO     CLOUDY    77  69  76 E6        29.99R
$$





USA.gov is the U.S. government's official web portal to all federal, state and local government web resources and services.